Bellaire, MI

10:51 PM EDT on October 18, 2017 (GMT -0400)
Antrim County

Weather History for KACB - September, 2013

Change the Weather History Date:

Sunday, September 15, 2013

  Actual Average (KCVX) Record (KCVX)
Temperature  
Mean Temperature 55 °F -  
Max Temperature 59 °F 69 °F 84 °F (2004)
Min Temperature 51 °F 57 °F 44 °F (2007)
Degree Days  
Heating Degree Days 10    
Growing Degree Days 5 (Base 50)    
Moisture  
Dew Point 53 °F    
Average Humidity 88    
Maximum Humidity 100    
Minimum Humidity 72    
Precipitation  
Precipitation 0.00 in - - ()
Sea Level Pressure  
Sea Level Pressure 30.05 in    
Wind  
Wind Speed 3 mph (WSW)    
Max Wind Speed 9 mph    
Max Gust Speed 21 mph    
Visibility 9 miles    
Events Rain    
Averages and records for this station are not official NWS values.
T = Trace of Precipitation, MM = Missing Value Source: NWS Daily Summary

Daily Weather History Graph

Daily Weather History Graph

Search for Another Location

Airport or City:

Trip Planner

Search our weather history database for the weather conditions in past years. The results will help you decide how hot, cold, wet, or windy it might be!

Date:

Astronomy

Sep. 15, 2013 Rise Set
Actual Time 7:19 AM EDT 7:51 PM EDT
Civil Twilight 6:50 AM EDT 8:20 PM EDT
Nautical Twilight 6:15 AM EDT 8:55 PM EDT
Astronomical Twilight 5:39 AM EDT 9:31 PM EDT
Moon 5:25 PM EDT (9/15) 2:47 AM EDT (9/15)
Length of Visible Light 13h 30m
Length of Day
12h 31m
Waxing Gibbous, 82% of the Moon is Illuminated
Sep 15
Waxing Gibbous
Sep 19
Full
Sep 26
Last Quarter
Oct 4
New
Oct 11
First Quarter

Hourly Weather History & Observations

Time (EDT) Temp. Dew Point Humidity Pressure Visibility Wind Dir Wind Speed Gust Speed Precip Events Conditions
12:14 AM 55.4 °F 48.2 °F 77% 30.02 in 10.0 mi SSE 3.5 mph - N/A   Clear
12:34 AM 55.4 °F 50.0 °F 82% 30.01 in 10.0 mi South 4.6 mph - N/A   Clear
12:54 AM 57.2 °F 50.0 °F 77% 30.02 in 10.0 mi SSW 5.8 mph - N/A   Clear
1:16 AM 57.2 °F 50.0 °F 77% 30.01 in 10.0 mi SSW 3.5 mph - N/A   Clear
1:34 AM 57.2 °F 50.0 °F 77% 30.01 in 10.0 mi SSW 3.5 mph - N/A   Clear
1:55 AM 57.2 °F 50.0 °F 77% 30.01 in 10.0 mi South 3.5 mph - N/A   Clear
2:14 AM 57.2 °F 50.0 °F 77% 30.01 in 10.0 mi SSW 3.5 mph - N/A   Scattered Clouds
2:34 AM 57.2 °F 50.0 °F 77% 30.00 in 10.0 mi South 3.5 mph - N/A   Scattered Clouds
2:54 AM 57.2 °F 50.0 °F 77% 30.00 in 10.0 mi SSW 3.5 mph - N/A   Scattered Clouds
3:16 AM 59.0 °F 50.0 °F 72% 30.00 in 10.0 mi SSW 4.6 mph - N/A   Clear
3:34 AM 57.2 °F 50.0 °F 77% 29.99 in 10.0 mi South 3.5 mph - N/A   Scattered Clouds
3:54 AM 57.2 °F 50.0 °F 77% 30.00 in 10.0 mi Calm Calm - N/A   Clear
4:14 AM 57.2 °F 50.0 °F 77% 29.99 in 10.0 mi South 3.5 mph - N/A   Scattered Clouds
4:35 AM 57.2 °F 50.0 °F 77% 30.00 in 10.0 mi SSW 4.6 mph - N/A   Mostly Cloudy
4:56 AM 57.2 °F 51.8 °F 82% 30.00 in 10.0 mi Calm Calm - N/A   Mostly Cloudy
5:14 AM 57.2 °F 51.8 °F 82% 30.00 in 10.0 mi SSE 4.6 mph - N/A   Mostly Cloudy
5:35 AM 57.2 °F 51.8 °F 82% 30.00 in 10.0 mi Calm Calm - N/A   Overcast
5:56 AM 59.0 °F 51.8 °F 77% 30.01 in 10.0 mi SW 3.5 mph - N/A   Mostly Cloudy
6:14 AM 59.0 °F 51.8 °F 77% 30.01 in 10.0 mi Calm Calm - N/A   Overcast
6:38 AM 55.4 °F 51.8 °F 88% 30.00 in 10.0 mi Calm Calm - N/A Rain Light Rain
6:54 AM 55.4 °F 53.6 °F 94% 30.01 in 10.0 mi Calm Calm - N/A Rain Light Rain
7:16 AM 55.4 °F 53.6 °F 94% 30.02 in 10.0 mi South 3.5 mph - N/A Rain Light Rain
7:37 AM 57.2 °F 53.6 °F 88% 30.01 in 10.0 mi Calm Calm - N/A   Overcast
7:55 AM 55.4 °F 53.6 °F 94% 30.01 in 10.0 mi Calm Calm - N/A Rain Light Rain
8:16 AM 55.4 °F 53.6 °F 94% 30.01 in 10.0 mi Calm Calm - N/A Rain Light Rain
8:37 AM 55.4 °F 55.4 °F 100% 30.00 in 10.0 mi Calm Calm - N/A   Overcast
8:57 AM 55.4 °F 53.6 °F 94% 30.00 in 10.0 mi Calm Calm - N/A   Overcast
9:17 AM 55.4 °F 55.4 °F 100% 30.00 in 10.0 mi Calm Calm - N/A   Overcast
9:36 AM 57.2 °F 55.4 °F 94% 30.00 in 10.0 mi Calm Calm - N/A   Overcast
9:56 AM 57.2 °F 53.6 °F 88% 30.01 in 10.0 mi Calm Calm - N/A   Overcast
10:18 AM 59.0 °F 53.6 °F 82% 30.01 in 10.0 mi Calm Calm - N/A   Overcast
10:36 AM 59.0 °F 53.6 °F 82% 30.01 in 10.0 mi Calm Calm - N/A   Overcast
10:58 AM 59.0 °F 53.6 °F 82% 30.01 in 10.0 mi Calm Calm - N/A   Overcast
11:17 AM 59.0 °F 53.6 °F 82% 30.02 in 10.0 mi Calm Calm - N/A Rain Light Rain
11:36 AM 59.0 °F 55.4 °F 88% 30.03 in 7.0 mi Calm Calm - N/A Rain Rain
11:58 AM 59.0 °F 55.4 °F 88% 30.03 in 4.0 mi Calm Calm - N/A Rain Rain
12:17 PM 59.0 °F 55.4 °F 88% 30.03 in 10.0 mi Calm Calm - N/A Rain Light Rain
12:36 PM 59.0 °F 55.4 °F 88% 30.03 in 10.0 mi South 4.6 mph - N/A Rain Light Rain
12:57 PM 59.0 °F 55.4 °F 88% 30.03 in 10.0 mi South 3.5 mph - N/A Rain Rain
1:17 PM 59.0 °F 57.2 °F 94% 30.03 in 10.0 mi SW 4.6 mph - N/A Rain Rain
1:37 PM 59.0 °F 55.4 °F 88% 30.03 in 10.0 mi WNW 6.9 mph - N/A Rain Rain
1:56 PM 59.0 °F 55.4 °F 88% 30.04 in 10.0 mi WNW 3.5 mph - N/A Rain Light Rain
2:17 PM 59.0 °F 57.2 °F 94% 30.03 in 10.0 mi NW 3.5 mph - N/A Rain Light Rain
2:42 PM 59.0 °F 57.2 °F 94% 30.03 in 10.0 mi Calm Calm - N/A Rain Light Rain
2:57 PM 59.0 °F 57.2 °F 94% 30.04 in 10.0 mi Calm Calm - N/A Rain Rain
3:17 PM 59.0 °F 57.2 °F 94% 30.03 in 10.0 mi WSW 3.5 mph - N/A Rain Rain
3:37 PM 59.0 °F 57.2 °F 94% 30.03 in 10.0 mi Calm Calm - N/A   Light Drizzle
3:56 PM 59.0 °F 55.4 °F 88% 30.03 in 10.0 mi Calm Calm - N/A   Overcast
4:18 PM 57.2 °F 55.4 °F 94% 30.04 in 4.0 mi Calm Calm - N/A Rain Rain
4:38 PM 57.2 °F 55.4 °F 94% 30.04 in 3.0 mi West 4.6 mph - N/A Rain Rain
5:03 PM 57.2 °F 55.4 °F 94% 30.04 in 10.0 mi West 3.5 mph - N/A   Overcast
5:17 PM 57.2 °F 55.4 °F 94% 30.04 in 5.0 mi Calm Calm - N/A   Light Drizzle
5:36 PM 57.2 °F 55.4 °F 94% 30.04 in 10.0 mi SW 3.5 mph - N/A   Overcast
5:57 PM 59.0 °F 57.2 °F 94% 30.05 in 10.0 mi Calm Calm - N/A   Overcast
6:16 PM 57.2 °F 57.2 °F 100% 30.05 in 2.5 mi WSW 4.6 mph - N/A Rain Rain
6:40 PM 57.2 °F 55.4 °F 94% 30.06 in 10.0 mi NNW 6.9 mph - N/A   Overcast
6:57 PM 57.2 °F 55.4 °F 94% 30.07 in 4.0 mi North 9.2 mph 20.7 mph N/A Rain Rain
7:20 PM 55.4 °F 53.6 °F 94% 30.08 in 10.0 mi NNW 5.8 mph - N/A   Overcast
7:37 PM 55.4 °F 53.6 °F 94% 30.09 in 10.0 mi North 6.9 mph - N/A   Overcast
7:58 PM 53.6 °F 51.8 °F 94% 30.10 in 10.0 mi North 5.8 mph - N/A   Overcast
8:22 PM 53.6 °F 51.8 °F 94% 30.12 in 10.0 mi Calm Calm - N/A   Overcast
8:37 PM 53.6 °F 51.8 °F 94% 30.13 in 10.0 mi NNW 5.8 mph - N/A   Overcast
8:58 PM 53.6 °F 51.8 °F 94% 30.14 in 10.0 mi NNW 9.2 mph - N/A   Overcast
9:22 PM 53.6 °F 50.0 °F 88% 30.15 in 10.0 mi NNW 6.9 mph - N/A   Overcast
9:37 PM 53.6 °F 50.0 °F 88% 30.15 in 10.0 mi NNW 6.9 mph - N/A   Overcast
9:58 PM 51.8 °F 50.0 °F 94% 30.16 in 5.0 mi Calm Calm - N/A   Overcast
10:18 PM 51.8 °F 50.0 °F 94% 30.17 in 10.0 mi NNW 4.6 mph - N/A   Overcast
10:39 PM 51.8 °F 50.0 °F 94% 30.18 in 10.0 mi NE 6.9 mph - N/A   Overcast
10:58 PM 51.8 °F 50.0 °F 94% 30.18 in 10.0 mi NNE 5.8 mph - N/A   Overcast
11:18 PM 51.8 °F 50.0 °F 94% 30.19 in 10.0 mi NNE 3.5 mph - N/A   Overcast
11:38 PM 51.8 °F 50.0 °F 94% 30.19 in 10.0 mi NE 3.5 mph - N/A   Overcast
11:59 PM 51.8 °F 50.0 °F 94% 30.20 in 10.0 mi NNE 3.5 mph - N/A   Overcast